Home   Weather   Bitterfeld-Wolfen   Past weeks

Flag for Germany Past Weather in Bitterfeld-Wolfen, Saxony-Anhalt, Germany — Yesterday and Last 2 Weeks

45 °F

Broken clouds.

Feels Like: 45 °F
Forecast: 36 / 49 °F
Wind: 1 mph from North

Location: Leipzig-Schkeuditz

Current Time: Oct 22, 2016 at 6:10:27 PM

Latest Report: Oct 22, 2016 at 5:20 PM

Visibility: N/A

Pressure: 29.92 "Hg

Humidity: 93%

Dew Point: 43 °F

Location of Bitterfeld-WolfenLocation

Past Weather in Bitterfeld-Wolfen — Graph


Bitterfeld-Wolfen Temperature Yesterday

Maximum temperature yesterday: 46 °F (at 12:20 PM)
Minimum temperature yesterday: 43 °F (at 12:20 AM)
Average temperature yesterday: 44 °F

High & Low Weather Summary for the Past Weeks

High64 °F (Oct 16, 2:20 PM)100% (Oct 7, 11:20 PM)30.27 "Hg (Oct 7, 11:20 PM)
Low39 °F (Oct 20, 7:50 AM)52% (Oct 16, 4:20 PM)29.77 "Hg (Oct 15, 1:50 AM)
Average48 °F89%30.07 "Hg
* Reported Oct 7 4:20 PM — Oct 22 4:50 PM, Bitterfeld-Wolfen, Weather by CustomWeather, © 2016

Note: Actual official high and low records may vary slightly from our data, if they occured in-between our weather recording intervals... More about our weather records


Bitterfeld-Wolfen Weather History for the Previous 24 Hours

Scroll right to see more
Time TempWeatherWind HumidityBarometerVisibility
4:50 PM
Sat, Oct 22
46 °FBroken clouds.2 mph82%29.92 "HgN/A
4:20 PM45 °FBroken clouds.3 mph87%29.92 "HgN/A
3:50 PM45 °FPartly sunny.2 mph87%29.92 "HgN/A
3:20 PM45 °FPartly sunny.5 mph87%29.92 "HgN/A
2:50 PM45 °FPartly sunny.5 mph87%29.92 "HgN/A
2:20 PM45 °FPartly sunny.3 mph93%29.92 "HgN/A
1:50 PM45 °FBroken clouds.5 mph93%29.92 "HgN/A
1:20 PM45 °FPartly sunny.6 mph93%29.92 "HgN/A
12:50 PM45 °FPartly sunny.5 mph93%29.89 "HgN/A
12:20 PM45 °FPartly sunny.8 mph93%29.89 "Hg5 mi
11:50 AM45 °FDrizzle. Partly sunny.9 mph93%29.89 "Hg4 mi
11:20 AM45 °FLight rain. Partly sunny.10 mph93%29.89 "Hg3 mi
10:50 AM43 °FLight rain. Partly sunny.8 mph100%29.89 "Hg3 mi
10:20 AM43 °FLight rain. Cloudy.8 mph93%29.89 "Hg3 mi
9:50 AM43 °FLight rain. Mostly cloudy.7 mph93%29.92 "Hg3 mi
9:20 AM43 °FLight rain. Mostly cloudy.8 mph93%29.92 "Hg4 mi
8:50 AM43 °FLight rain. Fog.6 mph93%29.92 "Hg3 mi
8:20 AM43 °FLight rain. Fog.5 mph93%29.92 "Hg2 mi
7:50 AM43 °FLight rain. Fog.6 mph93%29.89 "Hg3 mi
7:20 AM43 °FLight rain. Partly cloudy.7 mph93%29.89 "Hg4 mi
6:50 AM41 °FLight rain. Overcast.7 mph100%29.89 "HgN/A
6:20 AM43 °FClear.5 mph93%29.89 "Hg10 mi
5:50 AM43 °FLight rain. Clear.6 mph93%29.89 "HgN/A
5:20 AM41 °FPassing clouds.6 mph100%29.89 "HgN/A
4:50 AM41 °FClear.6 mph93%29.89 "Hg10 mi
4:20 AM41 °FClear.7 mph93%29.92 "Hg10 mi
3:50 AM43 °FPassing clouds.7 mph93%29.92 "HgN/A
3:20 AM43 °FPartly cloudy.5 mph93%29.92 "HgN/A
2:20 AM43 °FLight rain. Passing clouds.5 mph93%29.92 "HgN/A
1:50 AM43 °FLight rain. Partly cloudy.5 mph93%29.92 "HgN/A
1:20 AM43 °FLight rain. Partly cloudy.3 mph93%29.92 "HgN/A
12:50 AM43 °FLight rain. Mostly cloudy.6 mph87%29.92 "HgN/A
12:20 AM43 °FLight rain. Overcast.9 mph87%29.92 "HgN/A
11:50 PM
Fri, Oct 21
43 °FLight rain. Overcast.8 mph87%29.95 "HgN/A
11:20 PM43 °FPassing clouds.6 mph87%29.95 "HgN/A
10:50 PM43 °FPartly cloudy.8 mph87%29.95 "HgN/A
10:20 PM45 °FLight rain. Passing clouds.10 mph93%29.95 "HgN/A
9:50 PM45 °FLight rain. Passing clouds.8 mph93%29.95 "HgN/A
9:20 PM45 °FLight rain. Partly cloudy.7 mph93%29.92 "HgN/A
8:50 PM45 °FPassing clouds.8 mph93%29.92 "HgN/A
8:20 PM45 °FPassing clouds.8 mph93%29.92 "HgN/A
7:50 PM45 °FPartly cloudy.8 mph93%29.92 "HgN/A
7:20 PM45 °FPartly cloudy.8 mph93%29.92 "HgN/A
6:50 PM45 °FPassing clouds.7 mph93%29.92 "HgN/A
6:20 PM45 °FLight rain. Partly cloudy.8 mph93%29.92 "HgN/A
Weather by CustomWeather, © 2016

See weather overviewHow to use our weather pages